Valdosta, GA

6:58 AM EDT on August 20, 2017 (GMT -0400)
Moody Air Force Base

Weather History for KVAD - February, 2013

Change the Weather History Date:

Tuesday, February 5, 2013

  Actual Average Record
Temperature  
Mean Temperature 54 °F -  
Max Temperature 68 °F 61 °F 82 °F (2008)
Min Temperature 41 °F 42 °F 19 °F (2009)
Degree Days  
Heating Degree Days 10    
Growing Degree Days 4 (Base 50)    
Moisture  
Dew Point 46 °F    
Average Humidity 83    
Maximum Humidity 94    
Minimum Humidity 56    
Precipitation  
Precipitation 0.01 in - - ()
Sea Level Pressure  
Sea Level Pressure 30.04 in    
Wind  
Wind Speed 3 mph (South)    
Max Wind Speed 10 mph    
Max Gust Speed -    
Visibility 7 miles    
Events Rain    
Averages and records for this station are not official NWS values.
T = Trace of Precipitation, MM = Missing Value Source: NWS Daily Summary

Daily Weather History Graph

Daily Weather History Graph

Search for Another Location

Airport or City:

Trip Planner

Search our weather history database for the weather conditions in past years. The results will help you decide how hot, cold, wet, or windy it might be!

Date:

Astronomy

Feb. 05, 2013 Rise Set
Actual Time 7:21 AM EST 6:12 PM EST
Civil Twilight 6:56 AM EST 6:37 PM EST
Nautical Twilight 6:27 AM EST 7:06 PM EST
Astronomical Twilight 5:59 AM EST 7:34 PM EST
Moon 2:55 AM EST (2/5) 1:36 PM EST (2/5)
Length of Visible Light 11h 40m
Length of Day
10h 50m
Waning Crescent, 27% of the Moon is Illuminated
Feb 5
Waning Crescent
Feb 10
New
Feb 17
First Quarter
Feb 25
Full
Mar 4
Last Quarter

Hourly Weather History & Observations

Time (EST) Temp. Windchill Dew Point Humidity Pressure Visibility Wind Dir Wind Speed Gust Speed Precip Events Conditions
12:55 AM 44.8 °F - 39.7 °F 82% 30.04 in 10.0 mi Calm Calm - N/A   Clear
1:41 AM 44.6 °F - 39.2 °F 81% 30.05 in 6.0 mi Calm Calm - N/A   Haze
1:46 AM 44.6 °F - 39.2 °F 81% 30.05 in 7.0 mi Calm Calm - N/A   Clear
1:55 AM 45.0 °F - 40.5 °F 84% 30.04 in 10.0 mi Calm Calm - N/A   Clear
2:12 AM 44.6 °F 43.1 °F 39.2 °F 81% 30.04 in 10.0 mi South 3.5 mph - N/A   Clear
2:31 AM 42.8 °F - 39.2 °F 87% 30.03 in 10.0 mi Calm Calm - N/A   Clear
2:55 AM 42.3 °F - 39.7 °F 91% 30.03 in 10.0 mi Calm Calm - 0.00 in   Clear
3:19 AM 42.8 °F 41.1 °F 39.2 °F 87% 30.03 in 10.0 mi SSE 3.5 mph - N/A   Clear
3:44 AM 41.0 °F 39.0 °F 39.2 °F 93% 30.02 in 2.5 mi South 3.5 mph - N/A   Partly Cloudy
3:47 AM 41.0 °F 39.0 °F 39.2 °F 93% 30.02 in 1.8 mi South 3.5 mph - N/A   Clear
3:49 AM 41.0 °F 39.0 °F 39.2 °F 93% 30.02 in 1.5 mi South 3.5 mph - N/A   Clear
3:51 AM 41.0 °F 39.0 °F 39.2 °F 93% 30.02 in 1.2 mi South 3.5 mph - N/A   Clear
3:52 AM 41.0 °F 39.0 °F 39.2 °F 93% 30.02 in 1.2 mi South 3.5 mph - N/A   Clear
3:55 AM 41.5 °F 39.6 °F 39.0 °F 91% 30.02 in 1.2 mi South 3.5 mph - 0.00 in   Clear
3:57 AM 41.0 °F 39.0 °F 39.2 °F 93% 30.03 in 1.5 mi South 3.5 mph - N/A   Clear
3:58 AM 41.0 °F 39.0 °F 39.2 °F 93% 30.02 in 1.5 mi South 3.5 mph - N/A   Clear
4:07 AM 41.0 °F - 39.2 °F 93% 30.02 in 2.0 mi Calm Calm - N/A   Clear
4:08 AM 41.0 °F 39.0 °F 39.2 °F 93% 30.02 in 2.0 mi SSE 3.5 mph - N/A   Clear
4:12 AM 42.8 °F - 39.2 °F 87% 30.02 in 3.0 mi Calm Calm - N/A   Partly Cloudy
4:17 AM 41.0 °F - 39.2 °F 93% 30.02 in 4.0 mi Calm Calm - N/A   Scattered Clouds
4:24 AM 41.0 °F - 39.2 °F 93% 30.02 in 2.5 mi Calm Calm - N/A   Mostly Cloudy
4:28 AM 41.0 °F - 39.2 °F 93% 30.02 in 2.5 mi Calm Calm - N/A   Mostly Cloudy
4:37 AM 42.8 °F - 39.2 °F 87% 30.02 in 2.5 mi Calm Calm - N/A   Overcast
4:38 AM 42.8 °F - 39.2 °F 87% 30.02 in 2.5 mi Calm Calm - N/A   Overcast
4:40 AM 42.8 °F - 39.2 °F 87% 30.02 in 3.0 mi Calm Calm - N/A   Overcast
4:42 AM 42.8 °F - 39.2 °F 87% 30.02 in 2.5 mi Calm Calm - N/A   Overcast
4:45 AM 42.8 °F - 39.2 °F 87% 30.03 in 3.0 mi Calm Calm - N/A   Mostly Cloudy
4:55 AM 44.1 °F - 41.4 °F 90% 30.02 in 4.0 mi Calm Calm - 0.00 in   Mostly Cloudy
4:56 AM 44.6 °F 43.1 °F 41.0 °F 87% 30.02 in 4.0 mi SSE 3.5 mph - N/A   Mostly Cloudy
5:00 AM 44.6 °F - 41.0 °F 87% 30.03 in 5.0 mi Calm Calm - N/A   Mostly Cloudy
5:03 AM 44.6 °F 43.1 °F 41.0 °F 87% 30.03 in 5.0 mi South 3.5 mph - N/A   Mostly Cloudy
5:12 AM 44.6 °F 43.1 °F 41.0 °F 87% 30.04 in 5.0 mi SSW 3.5 mph - N/A   Mostly Cloudy
5:13 AM 44.6 °F 43.1 °F 41.0 °F 87% 30.04 in 5.0 mi SSW 3.5 mph - N/A   Mostly Cloudy
5:20 AM 44.6 °F 43.1 °F 41.0 °F 87% 30.04 in 5.0 mi South 3.5 mph - N/A   Mostly Cloudy
5:22 AM 44.6 °F 43.1 °F 42.8 °F 93% 30.04 in 5.0 mi South 3.5 mph - N/A   Mostly Cloudy
5:30 AM 44.6 °F 43.1 °F 42.8 °F 93% 30.04 in 4.0 mi South 3.5 mph - N/A Rain Light Rain
5:34 AM 44.6 °F 43.1 °F 42.8 °F 93% 30.04 in 4.0 mi SSE 3.5 mph - N/A Rain Light Rain
5:39 AM 44.6 °F 42.2 °F 42.8 °F 93% 30.04 in 4.0 mi South 4.6 mph - N/A Rain Light Rain
5:45 AM 46.4 °F 43.5 °F 42.8 °F 87% 30.04 in 6.0 mi SSE 5.8 mph - N/A Rain Light Rain
5:48 AM 46.4 °F 44.3 °F 42.8 °F 87% 30.04 in 7.0 mi SSE 4.6 mph - N/A Rain Light Rain
5:55 AM 46.0 °F 43.9 °F 42.8 °F 88% 30.04 in 10.0 mi South 4.6 mph - 0.00 in Rain Light Rain
6:06 AM 46.4 °F 44.3 °F 42.8 °F 87% 30.04 in 8.0 mi South 4.6 mph - N/A   Light Drizzle
6:21 AM 46.4 °F 45.2 °F 44.6 °F 93% 30.06 in 5.0 mi South 3.5 mph - N/A Rain Light Rain
6:23 AM 46.4 °F 45.2 °F 44.6 °F 93% 30.06 in 4.0 mi South 3.5 mph - N/A Rain Light Rain
6:39 AM 46.4 °F 44.3 °F 44.6 °F 93% 30.06 in 4.0 mi SSE 4.6 mph - N/A   Scattered Clouds
6:42 AM 46.4 °F 44.3 °F 44.6 °F 93% 30.06 in 4.0 mi SSE 4.6 mph - N/A   Partly Cloudy
6:45 AM 46.4 °F 44.3 °F 44.6 °F 93% 30.05 in 4.0 mi SSE 4.6 mph - N/A Rain Light Rain
6:48 AM 48.2 °F - 44.6 °F 87% 30.05 in 5.0 mi SSE 4.6 mph - N/A Rain Light Rain
6:51 AM 48.2 °F - 44.6 °F 87% 30.05 in 6.0 mi SSE 5.8 mph - N/A Rain Light Rain
6:55 AM 47.7 °F - 44.1 °F 87% 30.05 in 8.0 mi South 5.8 mph - 0.00 in Rain Light Rain
7:12 AM 48.2 °F - 44.6 °F 87% 30.05 in 9.0 mi SSE 4.6 mph - N/A Rain Light Rain
7:16 AM 48.2 °F - 44.6 °F 87% 30.05 in 9.0 mi SSE 5.8 mph - N/A   Partly Cloudy
7:55 AM 48.6 °F - 45.1 °F 88% 30.07 in 8.0 mi South 4.6 mph - 0.00 in   Clear
8:55 AM 51.3 °F - 46.4 °F 83% 30.09 in 10.0 mi SSW 6.9 mph - N/A   Partly Cloudy
9:50 AM 53.6 °F - 48.2 °F 82% 30.10 in 10.0 mi South 5.8 mph - N/A Rain Light Rain
9:55 AM 54.0 °F - 48.2 °F 81% 30.10 in 10.0 mi South 6.9 mph - 0.00 in Rain Light Rain
10:15 AM 55.4 °F - 48.2 °F 77% 30.09 in 10.0 mi South 6.9 mph - N/A   Clear
10:55 AM 61.9 °F - 49.1 °F 63% 30.09 in 10.0 mi SSW 9.2 mph - 0.00 in   Scattered Clouds
11:55 AM 64.2 °F - 50.4 °F 61% 30.08 in 10.0 mi SSW 8.1 mph - N/A   Scattered Clouds
12:29 PM 66.2 °F - 51.8 °F 60% 30.07 in 10.0 mi SW 10.4 mph - N/A Rain Light Rain
12:35 PM 66.2 °F - 51.8 °F 60% 30.05 in 10.0 mi WSW 8.1 mph - N/A   Mostly Cloudy
12:55 PM 65.3 °F - 51.6 °F 61% 30.06 in 10.0 mi WSW 10.4 mph - 0.00 in Rain Light Rain
12:58 PM 66.2 °F - 51.8 °F 60% 30.06 in 10.0 mi WSW 8.1 mph - N/A   Scattered Clouds
1:00 PM 66.2 °F - 51.8 °F 60% 30.06 in 10.0 mi WSW 9.2 mph - N/A Rain Light Rain
1:13 PM 64.4 °F - 51.8 °F 64% 30.05 in 10.0 mi WSW 6.9 mph - N/A   Scattered Clouds
1:55 PM 66.7 °F - 52.0 °F 59% 30.04 in 10.0 mi West 8.1 mph - 0.00 in   Mostly Cloudy
2:15 PM 66.2 °F - 51.8 °F 60% 30.03 in 10.0 mi West 8.1 mph - N/A Rain Light Rain
2:20 PM 66.2 °F - 51.8 °F 60% 30.01 in 10.0 mi Variable 5.8 mph - N/A   Scattered Clouds
2:26 PM 68.0 °F - 51.8 °F 56% 30.03 in 10.0 mi Variable 4.6 mph - N/A   Scattered Clouds
2:55 PM 67.6 °F - 53.2 °F 60% 30.03 in 10.0 mi SW 9.2 mph - 0.00 in   Mostly Cloudy
3:55 PM 67.5 °F - 52.7 °F 59% 30.02 in 10.0 mi SW 9.2 mph - N/A   Scattered Clouds
4:55 PM 66.2 °F - 52.2 °F 61% 30.02 in 10.0 mi SW 6.9 mph - N/A   Mostly Cloudy
5:55 PM 64.2 °F - 52.2 °F 65% 30.01 in 10.0 mi Calm Calm - N/A   Overcast
6:48 PM 62.6 °F - 51.8 °F 68% 30.02 in 10.0 mi SSW 5.8 mph - N/A Rain Light Rain
6:55 PM 62.4 °F - 53.8 °F 73% 30.02 in 10.0 mi SSW 5.8 mph - 0.00 in Rain Light Rain
7:48 PM 60.8 °F - 55.4 °F 82% 30.04 in 10.0 mi Calm Calm - N/A   Overcast
7:55 PM 60.8 °F - 55.4 °F 82% 30.04 in 10.0 mi NNW 3.5 mph - 0.00 in   Overcast
8:04 PM 59.0 °F - 55.4 °F 88% 30.04 in 10.0 mi NW 4.6 mph - N/A Rain Light Rain
8:26 PM 59.0 °F - 57.2 °F 94% 30.04 in 10.0 mi Calm Calm - N/A   Overcast
8:55 PM 58.8 °F - 56.5 °F 92% 30.05 in 10.0 mi South 3.5 mph - 0.00 in   Overcast
9:24 PM 59.0 °F - 55.4 °F 88% 30.06 in 10.0 mi Calm Calm - N/A Rain Light Rain
9:33 PM 59.0 °F - 55.4 °F 88% 30.06 in 8.0 mi Calm Calm - N/A Rain Light Rain
9:35 PM 59.0 °F - 55.4 °F 88% 30.06 in 8.0 mi Calm Calm - N/A Rain Light Rain
9:54 PM 59.0 °F - 57.2 °F 94% 30.06 in 10.0 mi North 6.9 mph - N/A   Overcast
9:55 PM 58.3 °F - 56.5 °F 94% 30.06 in 10.0 mi North 5.8 mph - 0.01 in   Overcast
10:55 PM 57.7 °F - 55.6 °F 92% 30.06 in 10.0 mi Calm Calm - N/A   Overcast
11:55 PM 57.2 °F - 55.2 °F 93% 30.06 in 10.0 mi South 3.5 mph - N/A   Overcast